Tracking 20093 objects as of 14-Dec-2019
HD Live streaming from Space Station
objects crossing your sky now

FENGYUN 1C DEB

Track FENGYUN 1C DEB now!
10-day predictions


NORAD ID: 30398
Int'l Code: 1999-025ADM
Perigee: 855.6 km
Apogee: 1,117.1 km
Inclination: 99.8 °
Period: 104.7 minutes
Semi major axis: 7357 km
RCS: 0.0135 m2 (small)
Launch date: May 10, 1999
Source: People's Republic of China (PRC)
Launch site: Taiyaun Space Center, China (TSC)

Note: This is SATELLITE DEBRIS
aabbcc
Your satellite tracking list
Your tracking list is empty




NASA's NSSDC Master Catalog

Two Line Element Set (TLE):
1 30398U 99025ADM 19347.72288494 -.00000076 +00000-0 -25557-4 0  9999
2 30398 099.8181 145.4044 0177671 210.9765 161.7318 13.75686417646081
Source of the keplerian elements: AFSPC